User: anonymous   Login
Location: Unspecified
(0.0000°N, 0.0000°E)
Time: 06:09:53
(UTC+01:00)
Language:

Cosmos 1263 Rocket - Orbit

View from above orbital plane
View from above orbital plane
View from above satellite
View from above satellite

Ground track
Ground track

The orbit data is extracted from the following two-line orbital elements,

1 12389U 81033B   14353.21427747  .00087354  00000-0  89541-3 0  1841
2 12389 082.8687 287.2923 0157961 161.1659 299.1312 15.50582967738198
Epoch (UTC): 19 December 2014 05:08:33
Eccentricity: 0.0157961
inclination: 82.8687°
perigee height: 308 km
apogee height: 522 km
right ascension of ascending node: 287.2923°
argument of perigee: 161.1659°
revolutions per day: 15.50582967
mean anomaly at epoch: 299.1312°
orbit number at epoch: 73819

The dashed part of the orbit path shows where the satellite is in the earth's shadow,  

DLR